CST,Max TemperatureF,Mean TemperatureF,Min TemperatureF,Max Dew PointF,MeanDew PointF,Min DewpointF,Max Humidity, Mean Humidity, Min Humidity, Max Sea Level PressureIn, Mean Sea Level PressureIn, Min Sea Level PressureIn, Max VisibilityMiles, Mean VisibilityMiles, Min VisibilityMiles, Max Wind SpeedMPH, Mean Wind SpeedMPH, Max Gust SpeedMPH,PrecipitationIn, CloudCover, Events, WindDirDegrees
2012-2-1,47,37,26,37,30,25,100,86,71,30.16,30.09,29.99,10,7,1,12,5,14,0.00,0,,238
2012-2-2,47,38,28,36,31,26,100,83,65,30.35,30.26,30.16,10,10,8,10,5,12,0.00,0,,359
2012-2-3,32,31,30,31,30,28,100,96,92,30.45,30.38,30.31,5,2,0,22,14,25,0.00,7,Fog,41
2012-2-4,32,29,25,28,27,24,100,93,85,30.44,30.36,30.29,10,5,2,23,14,29,0.00,4,,4
2012-2-5,30,28,25,27,26,24,100,93,85,30.42,30.35,30.23,8,3,1,17,8,20,0.00,8,,317
2012-2-6,46,34,22,35,26,21,100,80,60,30.26,30.18,30.09,10,4,0,18,10,24,0.00,5,Fog,253
2012-2-7,31,22,13,27,19,9,88,78,68,30.56,30.45,30.28,10,10,10,23,13,29,0.00,6,,9
2012-2-8,30,19,7,15,9,3,88,64,39,30.55,30.47,30.34,10,10,10,12,7,14,0.00,0,,279
2012-2-9,39,25,10,27,19,8,92,76,59,30.32,30.12,30.00,10,9,6,29,13,35,0.00,1,,230
2012-2-10,21,12,2,5,-3,-8,77,63,48,30.62,30.33,30.04,10,10,10,31,23,40,0.00,1,,343
2012-2-11,25,12,-1,-2,-6,-10,69,48,27,30.74,30.66,30.59,10,10,10,24,15,29,0.00,0,,312
2012-2-12,31,16,1,7,0,-6,75,51,27,30.58,30.38,30.10,10,10,10,20,10,24,0.00,1,,221
2012-2-13,27,22,17,27,22,7,96,73,50,30.06,29.80,29.71,10,2,0,21,9,26,0.08,7,Fog-Snow,188
2012-2-14,33,23,13,27,19,12,100,89,78,29.86,29.76,29.71,7,4,0,17,9,21,0.00,5,Fog,212
2012-2-15,36,26,15,31,24,15,92,84,75,30.10,29.96,29.87,9,5,2,14,5,16,0.00,6,,309
2012-2-16,36,26,16,26,20,13,96,80,64,30.21,30.14,30.07,10,8,0,17,10,21,0.00,0,Fog,254
2012-2-17,37,28,19,27,21,15,92,78,63,30.23,30.11,29.99,10,10,9,23,12,29,0.00,2,,292
2012-2-18,34,24,13,24,18,10,88,75,61,30.32,30.24,30.18,10,10,10,10,5,13,0.00,0,,249
2012-2-19,41,28,15,28,22,13,92,76,59,30.17,30.10,30.04,10,10,8,18,10,23,0.00,0,,174
2012-2-20,41,35,28,34,30,21,96,80,64,30.06,29.77,29.59,10,4,0,28,18,35,0.43,7,Fog-Rain-Snow,151
2012-2-21,34,30,25,34,29,22,100,85,69,29.72,29.64,29.57,10,8,1,28,14,33,0.02,5,,255
2012-2-22,41,34,27,33,28,25,92,81,70,29.61,29.48,29.41,10,10,10,12,4,14,0.00,4,,233
2012-2-23,35,31,26,30,28,26,100,91,82,29.75,29.58,29.41,10,3,0,23,11,26,T,8,Fog-Snow,358
2012-2-24,29,24,19,27,19,12,92,80,68,30.18,29.94,29.71,10,6,0,26,18,32,T,6,Fog-Snow,316
2012-2-25,24,16,8,17,11,4,84,76,67,30.31,30.19,30.01,10,10,10,25,13,30,0.00,1,,260
2012-2-26,38,29,20,29,21,15,81,72,63,30.18,29.87,29.64,10,10,10,44,26,55,0.00,1,,244
2012-2-27,29,22,15,23,16,10,84,76,68,30.52,30.42,30.26,10,10,10,25,12,31,0.00,1,,275
2012-2-28,34,31,28,34,29,23,96,87,78,30.32,29.88,29.40,10,4,1,23,16,29,0.97,8,Rain-Snow,123
2012-2-29,37,34,30,37,32,28,100,93,85,29.79,29.34,29.12,10,4,0,33,19,39,0.22,8,Fog-Rain-Snow,292